Regional Weather Roundup
Issued by NWS Albany, NY

Home | Current Version | Previous Version | Text Only | Print | Product List | Glossary On
Versions: 1 2 3 4 5 6 7 8 9 10 11 12 13 14 15 16 17 18 19 20 21 22 23 24 25 26 27 28 29 30 31 32 33 34 35 36 37 38 39 40 41 42 43 44 45 46 47 48 49 50
000
ASUS41 KALY 251810
RWRALY

NEW YORK STATE HOURLY WEATHER ROUNDUP
NATIONAL WEATHER SERVICE ALBANY NY
200 PM EDT FRI MAY 25 2018

NOTE: "FAIR" INDICATES FEW OR NO CLOUDS BELOW 12,000 FEET WITH NO
SIGNIFICANT WEATHER AND/OR NO OBSTRUCTIONS TO VISIBILITY.

NYZ032-033-038>043-046>054-057>066-NYZ062>081-082-084-251900-
EAST


CITY           SKY/WX    TMP DP  RH WIND       PRES   REMARKS
ALBANY         FAIR      84  49  29 W12       29.85F
GLENS FALLS    FAIR      84  47  27 SW13G20   29.80F
POUGHKEEPSIE   FAIR      86  50  28 SW10G21   29.87F
NEWBURGH       MOSUNNY   84  54  34 W12G23    29.91F
MONTGOMERY     FAIR      85  53  33 SW13G23   29.88F
WHITE PLAINS   FAIR      84  48  28 SW10      29.91F
ISLIP          PTSUNNY   80  58  46 SW16G25   29.93F
NEW YORK CITY  PTSUNNY   87  47  24 SW15G24   29.91F
CENTRAL PARK   FAIR      85  49  28 S5        29.94F
$$

NYZ005>009-017-018-044>046-055-056-251900-
CENTRAL


CITY           SKY/WX    TMP DP  RH WIND       PRES   REMARKS
FULTON         FAIR      83  52  34 W16G23    29.88F
SYRACUSE       FAIR      82  54  37 W9G20     29.87F
ROME           FAIR      81  54  39 W14G21    29.89F
ELMIRA         FAIR      84  52  33 SW7       29.91F
BINGHAMTON     FAIR      79  48  33 W13       29.95F
$$

NYZ026>034-041>043-087-251900-
NORTH


CITY           SKY/WX    TMP DP  RH WIND       PRES   REMARKS
WATERTOWN      CLOUDY    69  49  48 SW10      29.87F
FORT DRUM      NOT AVBL
MASSENA        FAIR      75  59  57 SW16G25   29.78F
SARANAC LAKE   CLOUDY    72  52  49 W13G21    29.83F
PLATTSBURGH    FAIR      81  53  37 W12G26    29.73F
$$

NYZ001>004-010>016-019>021-085-251900-
WEST


CITY           SKY/WX    TMP DP  RH WIND       PRES   REMARKS
NIAGARA FALLS  FAIR      83  55  38 SW15G23   29.90F
BUFFALO        FAIR      75  51  43 SW16      29.93F
DUNKIRK        FAIR      78  51  38 W13       29.95F
JAMESTOWN      FAIR      76  50  40 S7        29.99F
WELLSVILLE     FAIR      79  50  36 SW9       30.00F
ROCHESTER      FAIR      83  51  33 W12       29.90F
$$

             KEY
       WCI = WIND CHILL INDEX
       VSB = VISIBILITY
       HX  = HEAT INDEX
$$



USA.gov is the U.S. government's official web portal to all federal, state and local government web resources and services.